TUI1KN LEPA-EDDF

Flight info

Callsign TUI1KN
Flight time N/A
Altitude 34000
Route MEROS DCT LAPIT/N0453F360 DCT CHELY/N0459F320 DCT LUMAS DCT MAXIR DCT LUSOL DCT BODRU DCT OKTET DCT IRMAR DCT KINES DCT VANAS DCT MOBLO DCT UBIMA DCT SOSAL DCT KORED DCT BERSU N871 DITON/N0452F350 DCT LADOL/N0452F360 T163 EMPAX SPESA5B/25L
Aircraft B38M/M-SDE1FGHILORVWXY/HB1

Departure

Time N/A
Airport Palma de Mallorca Airport (LEPA)

Arrival

Time 2026-05-03 20:18
Airport Frankfurt Main Airport (EDDF)
Time Latitude Longitude Altitude Speed Heading
2026-05-03 20:15 50.07881 8.72920 2237 ft 129 kts 253°
2026-05-03 20:15 50.07610 8.71583 2138 ft 130 kts 249°
2026-05-03 20:15 50.07282 8.70274 2028 ft 129 kts 246°
2026-05-03 20:15 50.06950 8.68959 1852 ft 132 kts 249°
2026-05-03 20:16 50.06633 8.67601 1665 ft 135 kts 249°
2026-05-03 20:16 50.06318 8.66243 1437 ft 134 kts 249°
2026-05-03 20:16 50.05990 8.64876 1231 ft 134 kts 249°
2026-05-03 20:16 50.05663 8.63521 1028 ft 138 kts 247°
2026-05-03 20:17 50.05337 8.62140 868 ft 134 kts 248°
2026-05-03 20:17 50.05014 8.60798 742 ft 134 kts 246°
2026-05-03 20:17 50.04684 8.59415 526 ft 138 kts 247°
2026-05-03 20:17 50.04363 8.58069 375 ft 123 kts 248°
2026-05-03 20:18 50.04104 8.56979 366 ft 91 kts 249°
2026-05-03 20:18 50.03926 8.56236 356 ft 50 kts 250°
2026-05-03 20:18 50.03886 8.55859 353 ft 27 kts 274°
2026-05-03 20:18 50.03902 8.55705 352 ft 8 kts 280°
2026-05-03 20:19 50.03906 8.55663 355 ft 3 kts 279°
2026-05-03 20:19 50.03908 8.55652 351 ft 0 kts 280°
2026-05-03 20:21 50.03908 8.55650 351 ft 1 kts 281°
2026-05-03 20:21 50.03920 8.55630 356 ft 5 kts 339°
2026-05-03 20:21 50.03980 8.55666 353 ft 14 kts 57°
2026-05-03 20:21 50.04023 8.55847 357 ft 22 kts 70°
2026-05-03 20:22 50.04083 8.56097 360 ft 27 kts 69°
2026-05-03 20:22 50.04151 8.56381 358 ft 27 kts 69°
2026-05-03 20:22 50.04209 8.56617 361 ft 22 kts 69°
2026-05-03 20:22 50.04219 8.56661 366 ft 0 kts 70°
2026-05-03 20:23 50.04224 8.56682 361 ft 6 kts 70°
2026-05-03 20:24 50.04251 8.56801 364 ft 16 kts 70°
2026-05-03 20:24 50.04295 8.56984 363 ft 20 kts 71°
2026-05-03 20:24 50.04348 8.57204 366 ft 23 kts 69°
2026-05-03 20:24 50.04406 8.57448 365 ft 25 kts 70°
2026-05-03 20:25 50.04462 8.57684 367 ft 22 kts 70°
2026-05-03 20:25 50.04504 8.57858 369 ft 9 kts 69°
2026-05-03 20:25 50.04523 8.57937 368 ft 7 kts 71°
2026-05-03 20:25 50.04548 8.58013 369 ft 8 kts 44°
2026-05-03 20:26 50.04619 8.58011 364 ft 14 kts 340°
2026-05-03 20:26 50.04713 8.57958 363 ft 13 kts 348°
2026-05-03 20:26 50.04783 8.57990 366 ft 11 kts 44°
2026-05-03 20:26 50.04814 8.58090 360 ft 6 kts 72°
2026-05-03 20:27 50.04816 8.58099 360 ft 0 kts 72°
2026-05-03 20:27 50.04817 8.58103 365 ft 2 kts 71°
2026-05-03 20:27 50.04832 8.58171 368 ft 12 kts 68°
2026-05-03 20:27 50.04871 8.58336 366 ft 19 kts 70°
2026-05-03 20:28 50.04926 8.58571 363 ft 27 kts 69°
2026-05-03 20:28 50.04970 8.58757 363 ft 13 kts 71°
2026-05-03 20:28 50.04987 8.58832 364 ft 4 kts 68°
2026-05-03 20:28 50.04992 8.58888 362 ft 6 kts 112°
2026-05-03 20:29 50.04957 8.58925 365 ft 6 kts 158°
2026-05-03 20:29 50.04942 8.58935 364 ft 0 kts 159°
2026-05-03 20:29 50.04933 8.58940 364 ft 1 kts 160°
2026-05-03 20:29 50.04932 8.58940 364 ft 0 kts 159°